Theta_e
320 321 322 322 323 325 327 334 329 325 325 318 317 322 319 319 325 322 320 321 319 319 318 318 321 320 321 324 326 328 325 325 325 324 322 329 337 333 336 338 338 342 342 342 343 342 341 343 343 342 343 341 341 339 338 337 336 336 335 335 336 338 339 339 337 336 339 340 339 339 338 338 338 337 337 336 336 335 335 335 335 334 331 328 327 324 323 322 322 322 320 315 310 312 316 320 321
321 321 323 323 324 324 330 340 333 326 326 316 315 320 317 322 325 320 321 320 321 319 318 319 321 322 323 326 327 331 330 329 330 328 330 332 334 337 341 340 340 343 342 342 342 343 342 343 342 342 342 341 341 339 339 338 337 337 336 336 336 336 337 338 337 336 338 339 339 338 338 338 338 337 337 336 335 335 335 335 335 334 330 327 325 323 324 323 323 322 318 311 306 307 310 315 318
320 321 323 323 325 326 338 341 329 325 323 316 314 318 319 323 323 320 321 319 320 319 319 318 319 319 320 326 325 330 331 332 335 331 332 332 331 336 342 344 342 344 342 341 342 343 342 342 342 342 341 341 341 340 339 338 338 337 336 336 336 336 335 336 337 337 337 337 338 338 338 338 338 337 336 336 335 335 335 335 334 334 331 327 325 325 326 325 322 318 313 308 308 310 311 314 317
320 322 322 325 334 335 346 340 331 328 318 318 317 316 321 323 323 321 320 318 318 319 319 318 320 318 319 324 320 324 326 328 333 331 333 332 332 335 341 345 344 343 341 341 341 342 342 342 342 342 342 341 341 340 339 339 339 337 336 335 336 336 335 335 336 337 336 336 337 337 338 337 337 337 335 335 335 334 334 334 333 332 330 327 327 327 326 323 318 312 308 308 310 311 312 313 316
321 323 320 326 336 334 340 332 334 333 318 322 319 316 322 322 324 321 319 318 316 320 320 319 319 318 323 326 323 326 324 324 330 331 334 334 334 334 339 346 344 343 342 340 341 341 341 341 342 342 342 341 341 341 340 339 339 337 336 335 335 336 336 335 335 336 336 336 336 337 337 336 336 335 334 334 334 334 333 333 332 330 328 327 328 328 324 320 313 308 306 306 307 307 310 313 316
321 323 323 324 324 326 335 325 323 325 319 325 320 316 322 321 322 319 317 315 316 318 321 325 321 323 330 328 327 331 328 326 331 332 334 335 335 334 338 345 344 343 342 341 340 340 341 341 342 342 342 342 342 341 340 340 339 338 336 335 335 336 337 334 334 336 336 336 336 336 336 335 335 335 334 333 333 333 333 332 330 329 327 328 329 327 323 318 311 306 304 302 301 302 308 314 319
321 322 329 332 326 326 331 322 318 320 317 320 320 318 319 320 320 318 317 315 316 316 320 326 323 327 328 325 327 329 331 330 331 334 334 336 337 336 339 344 344 343 342 341 340 340 340 341 341 341 342 342 342 341 341 340 339 338 336 334 333 335 336 334 334 335 335 335 334 334 334 334 334 334 334 333 333 333 333 332 330 328 328 329 329 326 323 318 311 305 301 300 299 300 303 308 313
322 322 333 342 336 333 331 322 320 322 318 316 318 318 318 319 318 317 318 317 316 315 316 319 321 326 320 323 329 326 330 332 333 334 334 337 338 338 339 343 344 343 342 341 341 341 341 340 341 341 341 342 342 341 341 340 339 338 336 335 333 334 335 334 333 334 334 334 333 332 332 332 332 333 333 333 334 333 333 332 330 328 329 330 328 325 323 318 311 303 300 299 299 300 300 301 304
322 322 329 338 333 331 327 320 318 319 318 317 317 319 321 319 317 317 318 316 315 316 315 315 319 323 321 325 327 321 325 331 333 332 334 338 338 338 339 343 344 342 343 341 342 343 341 341 341 341 341 342 342 341 342 341 340 338 337 335 333 333 334 334 332 332 333 333 333 333 331 330 331 332 333 333 334 333 333 332 330 329 330 330 327 325 322 317 310 302 299 299 299 300 300 301 303
324 322 327 336 330 322 318 318 320 318 317 318 316 318 319 317 318 317 317 316 315 317 315 316 320 321 322 324 322 318 319 327 332 331 333 338 340 341 341 343 343 342 343 343 344 343 342 341 341 341 341 342 342 342 341 341 340 339 337 335 333 333 333 333 332 331 332 334 334 334 332 330 331 332 332 333 333 333 333 332 330 330 331 329 327 324 320 316 311 302 298 299 300 300 301 304 306
331 331 338 340 328 321 318 320 320 318 317 318 317 317 317 317 319 317 318 316 315 318 315 317 321 320 320 321 320 315 315 324 331 333 332 336 340 342 343 343 343 343 344 344 344 343 342 342 341 341 341 342 342 341 342 341 340 340 338 336 335 334 333 333 333 332 332 334 334 334 334 332 332 333 332 332 333 334 334 333 331 331 330 328 326 323 319 316 312 304 299 299 300 300 302 305 309
328 334 352 338 324 325 323 322 318 319 318 317 318 316 317 319 319 316 318 317 316 318 315 316 318 320 321 320 319 312 314 323 328 334 332 333 339 340 342 344 343 344 344 344 343 343 343 342 341 341 342 342 341 342 342 341 341 340 339 337 335 334 335 335 334 333 333 333 333 334 335 334 334 333 333 333 333 334 334 333 331 331 329 328 325 322 319 317 315 309 302 299 299 300 301 304 309
328 332 353 329 321 329 323 322 320 321 318 318 319 316 318 319 319 318 318 318 317 318 315 314 315 321 321 317 316 311 314 321 325 334 330 329 336 338 340 341 342 343 343 343 343 342 341 340 341 342 342 342 341 342 341 341 341 341 340 338 336 335 335 335 335 334 333 333 333 334 335 335 335 334 334 333 333 333 333 333 332 330 329 327 325 323 321 319 317 314 308 303 300 299 301 302 304
326 334 350 324 319 328 322 321 320 321 320 321 320 315 318 317 318 318 319 320 316 316 313 311 314 320 319 314 317 314 314 319 324 331 328 327 333 335 337 337 339 340 341 342 341 340 338 340 341 340 341 342 341 341 341 340 341 340 340 338 336 336 335 335 335 335 334 334 334 334 334 335 335 335 334 333 333 333 332 333 332 331 329 327 326 324 322 320 319 317 315 310 306 301 300 300 301
323 339 349 325 318 322 321 323 322 323 321 321 319 316 319 315 317 318 319 320 314 313 312 312 312 315 319 317 320 316 314 317 323 330 327 326 331 333 334 334 336 336 338 338 338 337 338 341 341 340 340 341 341 341 340 339 341 340 340 340 337 336 335 334 334 334 334 334 334 334 334 334 335 335 335 333 333 333 332 332 332 331 329 327 326 325 322 321 321 320 318 316 312 307 302 300 300
330 345 343 325 319 318 319 323 323 323 321 322 319 317 319 314 316 317 315 316 315 314 313 316 312 313 319 318 317 312 314 318 321 329 327 326 328 329 330 331 332 332 334 335 336 336 337 339 340 341 341 341 340 339 339 338 339 340 340 340 339 337 336 335 333 333 333 334 334 333 333 334 334 335 334 333 333 333 332 332 332 331 330 327 327 326 323 322 323 322 321 319 317 314 310 306 303
341 348 342 328 319 317 317 320 322 324 323 322 319 317 319 316 316 314 312 316 319 315 312 314 310 311 315 314 313 312 316 317 320 329 327 323 323 322 324 324 326 327 328 330 333 335 335 336 338 339 340 341 339 338 338 338 337 338 339 339 339 338 337 335 334 333 333 333 333 333 333 332 332 333 333 333 333 333 333 332 332 331 330 328 327 326 325 324 324 324 322 321 320 318 316 314 311
347 345 339 325 316 318 317 320 323 323 321 319 317 318 321 318 316 314 314 317 316 315 313 312 312 310 311 312 314 315 316 317 322 329 324 319 318 318 318 318 320 321 321 324 327 331 334 336 336 337 338 338 338 337 338 338 338 338 338 338 338 338 337 336 335 334 333 333 333 332 332 332 332 331 332 333 333 333 333 332 332 331 330 329 327 327 326 326 325 324 323 322 320 319 318 316 315
339 341 333 322 321 319 315 319 320 318 318 319 318 318 320 318 317 315 316 317 314 318 316 312 314 312 311 313 314 315 315 317 321 323 318 315 316 316 316 316 317 317 318 319 321 325 330 333 335 335 336 337 337 338 338 338 338 337 337 338 338 338 338 337 336 334 333 333 332 332 332 332 331 331 332 333 334 334 333 333 332 331 331 330 328 327 327 326 325 325 324 323 321 320 319 317 316
329 338 327 319 323 319 314 318 318 317 318 319 318 316 318 317 315 314 317 318 315 321 321 316 316 313 313 312 312 315 314 315 316 316 314 313 314 314 315 315 315 315 316 317 317 320 323 328 332 334 335 337 337 338 338 339 339 338 337 338 338 338 337 337 337 335 335 334 333 333 332 332 332 333 334 334 334 334 333 333 332 331 331 330 329 328 327 326 325 325 324 324 323 321 319 318 317
323 329 324 318 319 318 316 317 317 318 318 320 318 316 317 315 314 316 318 318 317 321 322 321 320 314 314 313 311 313 313 313 313 313 313 312 313 313 313 314 314 315 315 315 316 316 318 322 328 333 334 335 337 337 338 339 341 339 337 337 337 337 337 337 338 337 337 335 335 334 332 332 333 334 335 335 335 334 334 333 332 332 331 331 329 328 327 326 324 324 324 324 324 322 320 319 317
321 319 320 320 318 317 317 317 319 318 318 320 317 315 316 315 315 318 318 319 321 320 319 320 317 312 313 312 311 311 311 311 312 312 312 312 312 312 313 313 313 314 314 314 314 315 315 317 322 329 333 335 336 337 336 338 339 339 338 337 337 338 337 337 337 337 337 336 336 335 332 333 334 335 335 335 334 334 334 333 333 332 331 331 329 328 327 326 325 324 324 324 323 322 321 320 319
322 318 317 319 318 318 318 317 319 319 319 319 317 315 315 316 316 316 317 318 317 314 314 315 312 309 310 310 310 311 310 309 311 312 312 311 311 312 312 312 313 313 313 312 312 314 316 316 317 323 329 334 336 336 335 335 336 337 339 338 338 338 337 338 337 337 337 335 335 335 333 334 334 334 334 334 334 334 333 333 333 332 332 331 329 328 328 328 325 323 324 324 323 323 322 321 319
325 320 317 318 317 319 319 319 320 321 320 317 316 315 315 318 315 315 318 316 312 309 308 308 307 308 308 309 309 309 309 309 310 311 311 311 311 311 311 312 312 311 312 311 311 315 317 317 317 318 325 332 335 333 334 335 334 337 339 338 338 338 337 337 336 337 337 335 335 335 334 334 334 333 334 334 333 333 332 332 333 331 331 330 330 329 329 329 326 324 324 325 324 323 322 321 320
324 319 318 319 318 319 320 320 321 320 318 316 315 315 317 319 314 316 319 313 310 308 306 306 306 308 309 311 309 307 308 309 309 310 310 310 311 311 312 313 312 312 312 311 312 315 317 318 319 318 322 330 332 331 333 335 335 337 338 337 337 336 335 335 335 335 335 335 334 333 333 334 333 333 333 332 332 332 331 332 332 331 330 329 330 330 329 330 326 324 324 324 324 322 321 320 319
320 318 319 319 317 317 318 319 320 319 318 316 316 317 319 317 313 316 317 312 311 309 309 309 309 311 312 313 308 305 307 307 308 309 309 310 311 312 312 313 313 313 313 312 313 314 316 318 320 320 322 328 329 330 333 334 335 336 335 334 334 334 333 333 334 334 333 333 333 332 333 333 333 333 332 332 331 331 330 331 331 330 330 329 329 329 329 328 325 323 323 324 324 322 321 320 319
319 319 319 319 319 318 318 318 320 319 317 316 316 319 318 315 314 317 316 310 310 311 311 311 312 313 312 311 308 305 306 307 307 307 307 309 311 313 312 312 313 314 313 313 314 314 316 319 321 323 325 328 328 330 332 332 334 334 334 333 332 332 331 332 333 332 332 331 331 332 332 333 332 332 331 331 331 330 330 330 330 330 330 329 329 328 327 326 324 323 323 323 323 321 320 319 318
317 318 318 320 321 319 318 317 317 317 316 317 318 318 316 313 315 320 316 310 310 311 312 311 312 312 310 311 308 305 305 306 307 307 307 308 311 313 313 313 313 314 314 314 314 314 317 321 323 325 326 328 329 330 331 331 332 331 331 331 331 331 330 331 331 331 330 330 330 330 330 330 331 330 330 330 330 329 329 329 328 328 328 328 328 327 325 324 323 323 323 322 322 320 320 319 318
316 317 318 324 326 322 319 318 317 316 316 317 317 316 318 316 316 318 313 309 310 311 311 311 312 311 311 311 309 306 304 305 306 306 307 307 310 313 313 313 313 314 314 315 316 315 318 322 324 325 326 327 329 329 330 330 330 329 329 329 329 329 329 330 330 328 328 328 328 329 329 329 328 329 328 328 328 328 327 327 327 326 326 325 325 325 324 324 324 324 323 323 322 321 320 319 319
317 317 317 323 326 325 320 315 316 316 315 318 316 318 327 326 318 315 309 308 311 311 311 310 310 311 311 310 310 309 304 303 305 306 306 306 309 313 313 314 314 315 314 316 318 316 318 321 323 324 324 327 328 328 329 328 328 328 326 327 327 327 329 329 327 326 326 326 327 327 327 327 327 327 327 327 326 327 326 326 325 324 323 323 323 323 323 323 323 323 322 322 321 320 320 319 319
319 315 321 325 320 329 327 316 317 316 314 316 317 319 326 327 319 312 308 308 311 312 311 309 310 310 310 310 310 310 305 303 305 305 305 306 309 312 313 314 314 314 314 316 318 318 319 320 322 324 324 326 326 326 328 326 326 327 325 325 326 326 327 327 325 324 324 324 325 325 325 325 325 325 325 325 325 325 325 324 323 321 321 321 321 321 321 321 320 320 319 319 319 318 318 318 317
326 315 327 331 318 331 334 316 316 317 314 313 316 320 320 321 319 312 308 308 310 312 311 309 310 309 309 309 308 309 305 302 304 304 304 305 308 311 313 313 313 314 315 317 318 318 319 319 321 322 323 325 324 325 326 324 323 324 324 324 324 324 324 324 323 322 322 322 323 323 322 322 323 323 323 324 323 323 323 322 320 319 319 319 318 318 318 317 317 317 316 316 317 317 316 315 314
337 321 326 333 322 326 328 317 316 317 315 313 314 321 322 320 316 310 308 309 310 312 311 309 310 309 308 308 307 307 305 303 303 302 303 304 306 310 313 313 313 315 316 317 317 318 318 317 319 320 321 322 321 322 323 321 321 322 322 320 321 323 322 321 320 320 320 320 320 319 319 320 320 321 321 321 321 320 320 319 317 316 317 317 316 315 315 313 312 313 312 312 313 313 311 310 310
336 324 321 331 325 321 325 322 317 314 316 315 314 316 319 320 315 309 309 309 310 311 311 310 309 308 307 307 307 306 305 305 303 302 303 303 305 310 313 313 313 313 315 315 315 316 317 316 316 318 318 318 318 318 320 320 319 319 318 317 318 320 319 317 317 318 318 318 318 318 317 318 318 317 317 317 318 317 317 315 314 314 314 314 313 311 309 306 304 305 304 303 305 305 305 306 308
334 327 323 327 324 320 324 324 318 314 315 316 315 315 315 316 315 312 309 308 310 311 310 309 308 308 308 308 307 306 305 305 303 302 303 303 306 310 313 313 313 312 313 313 313 314 315 315 314 315 315 316 316 316 318 318 316 315 316 315 315 315 314 314 315 315 315 316 316 315 315 315 314 314 314 314 314 313 313 311 310 310 310 311 310 307 303 300 298 297 297 299 302 304 303 305 306
334 332 330 329 326 323 324 324 320 316 315 316 316 315 315 314 314 315 311 309 310 310 309 309 309 308 308 308 307 306 305 304 302 302 303 303 306 311 312 312 311 310 311 312 312 312 312 312 312 312 312 314 315 314 315 315 312 311 311 312 311 309 309 310 311 312 312 312 311 311 312 312 311 311 311 312 312 311 310 309 308 308 308 308 305 301 297 295 295 295 295 297 302 305 305 305 304
327 328 328 328 327 325 325 324 320 315 315 319 317 315 315 315 314 315 312 310 310 310 310 310 310 309 308 308 307 306 305 303 301 302 303 303 305 309 310 311 310 308 309 310 310 310 310 311 311 310 309 311 313 313 312 312 312 310 308 308 307 305 305 307 307 307 308 308 308 309 309 309 309 309 308 309 308 308 307 306 306 306 305 302 298 295 293 293 294 294 294 295 298 301 303 303 303
320 322 323 324 324 324 323 322 318 314 315 321 320 316 315 314 314 314 313 312 311 310 310 310 310 309 308 307 307 307 305 302 301 301 302 302 305 307 309 310 309 307 307 308 309 308 307 309 310 309 307 307 308 310 309 309 311 311 309 307 305 303 303 304 305 304 305 305 306 306 305 305 305 305 305 305 304 304 304 304 303 301 298 295 293 292 292 292 292 293 294 294 293 294 296 299 303
319 320 319 322 324 322 323 324 318 314 316 324 324 319 317 317 315 315 315 314 312 310 310 310 310 309 308 308 307 306 306 304 302 301 301 302 304 306 307 308 308 308 307 307 307 306 305 306 307 306 305 304 304 306 307 307 307 308 308 305 305 304 301 302 302 301 302 303 302 301 301 301 301 300 299 299 299 299 299 299 297 294 292 292 292 291 291 291 291 292 292 292 292 292 291 293 297
320 321 319 322 324 321 324 325 318 316 317 320 322 319 318 317 317 317 316 314 312 311 311 310 310 310 308 307 307 306 305 304 303 302 301 301 304 305 306 307 307 307 306 306 306 305 304 304 304 304 304 305 305 306 307 308 307 305 304 303 304 304 300 299 299 298 299 299 297 296 296 296 295 295 294 294 294 294 294 293 292 292 292 292 292 291 291 290 290 290 291 291 291 291 290 289 291
322 322 321 321 322 322 324 323 321 325 326 320 319 321 323 322 320 319 318 314 313 313 313 312 310 310 310 308 307 306 305 303 303 303 301 300 302 304 305 307 307 306 305 306 306 305 304 304 303 303 304 305 306 307 308 309 307 304 301 299 299 298 295 295 296 294 294 294 293 293 292 292 292 292 292 292 292 292 292 292 292 292 292 291 292 291 290 290 290 290 290 290 290 290 289 288 288
323 324 322 320 322 323 324 323 322 330 334 323 318 326 335 335 327 322 321 317 316 315 314 313 310 310 311 309 308 306 304 303 302 302 301 300 301 303 305 306 307 306 305 305 306 306 306 304 303 302 303 304 305 306 306 308 307 305 303 299 295 293 291 292 293 292 291 291 291 291 291 291 292 292 292 292 292 292 292 292 292 292 291 291 291 290 289 289 289 289 289 289 289 289 289 288 287
324 327 324 321 322 323 325 326 324 329 333 323 320 328 334 332 327 326 327 324 322 320 316 313 311 311 310 308 308 306 304 303 302 302 301 300 301 302 304 305 306 306 305 305 305 305 306 304 303 303 303 303 305 305 304 305 306 304 304 302 297 294 291 289 290 290 290 290 290 290 290 290 291 291 291 291 291 291 291 291 291 291 290 289 289 289 289 288 288 288 288 289 288 288 289 288 287
327 327 325 324 321 323 325 325 326 329 329 325 325 328 327 325 323 325 328 328 327 324 319 315 311 310 310 308 307 305 304 303 302 302 301 299 300 302 304 305 305 305 305 305 304 304 305 303 303 303 303 303 304 304 303 304 305 303 301 299 296 295 292 289 289 289 289 290 290 289 290 289 290 290 290 290 290 290 290 290 290 289 289 289 288 288 288 288 288 288 288 288 288 288 288 288 287
327 324 324 326 324 327 328 326 327 326 325 329 329 325 325 328 326 323 323 324 327 325 322 319 314 311 309 307 307 305 304 302 302 302 301 300 300 302 304 304 303 304 304 304 304 304 303 302 302 303 302 302 302 302 302 302 303 303 301 297 293 291 290 289 288 289 289 289 289 289 289 289 289 289 289 289 289 289 289 289 289 289 289 288 288 288 288 288 288 288 288 287 287 287 287 287 287
322 322 324 327 326 330 333 332 331 329 327 329 330 325 325 329 329 325 322 323 327 325 322 319 316 313 309 307 306 305 303 302 301 301 300 300 300 301 304 304 302 302 303 303 303 303 302 301 301 302 301 301 300 300 300 299 300 301 300 297 293 289 288 288 288 288 288 288 288 288 288 288 288 288 288 289 288 288 289 288 289 288 288 288 288 288 288 287 287 287 287 286 286 286 286 286 286
320 326 330 331 330 331 334 332 329 330 328 327 330 327 325 328 329 326 324 326 328 324 323 324 319 314 310 307 305 304 303 302 301 301 300 299 300 301 303 302 300 301 302 302 302 301 301 300 300 300 298 297 298 298 299 298 297 299 298 296 292 289 288 288 288 287 287 288 288 288 288 288 288 288 288 288 288 288 288 288 288 288 288 288 288 287 287 287 286 286 286 286 286 285 285 285 285
323 334 335 330 331 331 332 331 329 330 329 327 329 325 324 327 326 324 325 324 323 322 324 329 327 317 309 306 304 303 303 302 301 301 300 298 298 300 301 301 299 299 300 300 300 299 299 299 298 298 296 295 296 296 297 297 295 295 295 293 291 289 289 288 288 288 288 288 288 287 287 287 287 287 287 288 288 288 288 288 288 288 287 287 287 286 286 286 286 286 286 285 285 285 285 285 285
324 332 330 327 329 329 329 330 329 329 326 322 321 322 323 325 325 326 326 323 324 324 322 324 324 317 310 306 304 303 302 301 301 301 300 298 297 298 299 299 298 298 299 299 298 297 297 297 297 297 296 295 295 295 295 295 293 293 292 291 290 289 288 289 289 288 288 288 288 287 287 287 287 287 288 288 288 288 288 288 287 287 287 286 286 286 286 286 286 285 285 285 285 285 285 285 284
322 325 327 327 328 331 333 331 327 327 326 319 316 321 324 325 326 324 323 323 326 325 321 320 319 316 311 306 304 303 302 301 301 300 300 298 297 297 298 298 297 297 298 298 297 297 296 296 296 297 296 295 295 295 294 293 292 291 291 290 289 288 288 289 289 289 289 288 288 288 288 288 288 288 288 288 288 287 287 287 287 286 286 286 286 286 286 285 285 285 285 285 285 284 284 284 284
319 322 326 325 327 333 336 333 330 330 328 320 316 322 328 330 328 321 319 323 325 325 320 316 315 312 309 306 304 303 301 301 300 300 300 298 296 297 297 297 297 297 297 297 297 297 296 296 297 297 296 295 295 294 293 292 291 290 289 289 288 288 289 289 289 289 289 289 288 288 288 288 288 288 288 287 287 287 287 286 286 286 286 286 285 286 285 285 285 285 285 285 285 284 284 284 284
320 324 326 325 328 330 327 327 327 327 327 322 319 324 327 327 324 319 318 320 320 320 318 315 315 311 308 307 304 302 301 300 300 300 299 297 296 296 297 297 297 297 296 297 297 296 296 296 296 296 296 295 294 294 293 291 290 289 289 288 288 289 289 289 289 288 289 289 289 289 288 288 288 288 287 287 287 287 286 286 286 286 286 286 286 286 286 285 285 285 285 285 285 284 284 284 284
321 321 324 323 323 324 323 324 321 321 326 326 322 324 326 325 323 319 318 321 320 318 318 317 315 310 308 306 303 302 301 300 299 299 298 296 295 296 296 297 297 296 296 296 296 296 297 296 296 296 295 294 294 293 292 291 290 289 288 288 288 289 289 289 289 288 288 288 288 289 289 288 288 287 287 287 286 286 286 286 286 286 286 286 286 286 286 285 285 285 285 285 284 284 284 284 283
323 324 324 320 320 325 329 329 326 326 328 327 324 324 326 327 325 320 316 319 321 320 319 317 312 308 308 305 302 302 301 300 299 298 297 295 295 295 296 296 297 296 296 296 296 296 297 296 296 295 294 293 293 293 291 290 289 289 288 288 288 289 289 289 288 288 288 288 288 288 288 288 287 287 287 286 286 286 286 286 286 286 286 286 286 285 285 285 285 285 284 284 284 284 283 283 283
322 326 323 322 327 329 327 328 330 330 329 329 326 323 322 322 324 323 320 320 322 320 318 317 314 311 307 304 303 302 301 300 299 298 297 295 294 295 295 295 296 296 295 295 296 296 296 296 295 295 294 293 293 292 291 290 290 289 289 288 288 288 288 288 288 288 288 289 289 288 288 287 287 287 286 286 286 286 286 286 286 286 286 286 285 285 285 285 285 284 284 284 283 283 283 283 283
317 320 319 321 326 327 326 327 329 330 330 331 329 325 324 324 323 325 323 323 324 320 317 318 316 311 305 303 303 301 300 300 298 297 297 295 294 294 295 295 295 295 295 295 295 295 295 295 294 294 293 292 291 291 290 290 289 289 288 288 288 288 288 288 288 288 289 289 288 288 288 287 287 286 286 286 286 286 286 286 286 286 286 285 285 285 285 285 284 284 284 283 283 283 282 283 282
317 320 321 320 320 322 325 325 325 330 331 332 331 327 327 326 323 323 323 322 322 320 320 320 315 309 305 303 302 301 300 299 298 297 296 294 294 294 294 295 295 295 295 294 294 295 295 294 293 293 292 291 291 291 290 290 289 289 288 288 288 288 288 288 288 288 289 288 288 288 287 287 286 286 286 286 286 286 286 286 286 286 285 285 285 285 285 284 284 284 283 283 282 282 282 282 282
319 320 321 320 319 321 325 324 325 328 327 330 330 327 326 324 321 322 322 319 318 317 318 320 316 310 307 303 302 301 300 299 298 297 296 294 293 293 293 294 294 294 294 293 294 294 294 293 292 292 292 291 291 290 290 290 289 289 289 288 288 288 288 288 288 288 288 288 287 287 287 287 286 286 286 286 286 286 286 286 285 285 285 285 285 284 284 284 284 283 283 283 282 282 282 282 282
Wind_Speed
9 7 4 5 4 1 2 4 3 2 4 3 1 2 0 2 2 3 2 2 3 1 2 4 4 5 6 8 10 7 4 1 2 3 2 3 4 2 6 4 7 12 15 16 16 15 14 14 13 13 12 11 11 11 11 12 13 12 12 12 13 13 13 12 12 13 13 13 13 13 13 14 14 14 14 14 14 14 15 15 15 16 16 17 17 18 17 17 17 16 16 14 10 7 5 5 6
8 6 5 3 2 1 0 3 4 3 5 3 2 2 1 2 3 4 2 2 2 1 3 6 9 10 9 10 8 7 6 4 1 3 2 4 7 3 5 6 8 14 15 16 16 16 15 15 14 13 12 11 11 11 11 12 12 11 12 12 12 13 13 12 12 12 12 12 12 13 13 13 13 13 13 14 14 14 14 14 15 16 15 16 17 17 18 18 18 18 18 16 12 7 5 4 5
9 6 6 2 1 3 1 4 4 2 5 3 2 2 1 3 4 5 5 3 4 3 4 5 7 5 5 8 4 4 2 4 3 1 2 4 6 5 8 10 10 12 12 15 16 15 15 15 13 13 12 11 11 11 11 11 11 11 11 11 12 12 13 13 13 12 12 12 11 12 12 12 12 12 12 12 13 13 13 14 15 14 14 15 16 18 19 20 19 19 18 16 12 8 6 5 5
9 6 6 3 2 3 4 4 3 5 4 3 0 4 2 5 6 6 5 4 4 1 3 3 5 4 5 9 3 3 2 2 3 1 1 3 6 8 11 12 12 11 11 14 15 15 14 14 13 12 11 11 11 11 11 11 10 10 10 11 11 12 12 12 12 12 12 12 12 12 12 12 11 11 11 11 12 12 12 13 13 13 13 14 16 19 20 20 20 19 17 15 13 10 8 6 7
7 4 5 4 3 2 3 3 2 5 4 5 3 4 5 6 6 5 3 4 3 5 5 3 3 2 5 5 1 2 1 2 2 2 2 3 7 9 11 15 14 11 10 13 15 14 13 13 12 11 11 10 10 10 10 10 10 10 10 11 11 11 11 12 13 12 12 12 12 12 12 11 11 10 10 10 11 11 11 11 12 12 13 15 17 19 20 20 19 18 16 15 13 11 9 8 8
7 4 5 6 3 1 3 4 4 3 3 5 4 4 6 6 7 5 1 3 4 5 4 4 4 3 4 2 3 3 3 1 1 2 2 3 7 8 12 18 16 12 10 13 15 14 13 13 12 11 11 10 10 10 10 9 9 9 10 10 11 12 11 12 13 13 13 12 12 12 11 11 10 10 9 10 11 11 10 10 11 11 13 15 17 19 20 19 19 18 16 15 13 12 11 10 10
7 3 4 6 3 3 5 4 4 2 1 5 6 6 7 6 6 5 3 2 5 6 4 4 6 7 3 0 3 4 5 3 1 2 2 3 6 9 14 19 17 14 12 13 15 13 12 12 12 11 11 11 10 10 9 9 9 9 10 10 10 11 11 11 12 13 13 12 12 11 11 10 10 9 9 10 10 10 9 9 10 12 14 15 16 18 18 19 18 17 16 15 14 13 12 11 11
6 2 1 5 3 4 5 3 3 3 1 3 4 6 8 7 6 5 3 2 2 3 4 2 4 6 1 1 3 2 8 7 3 3 3 3 6 11 15 20 19 16 14 14 16 13 12 12 12 12 11 11 10 10 9 9 9 10 10 9 10 11 11 11 12 12 12 12 11 11 10 9 9 9 9 10 10 10 9 9 9 11 13 14 15 17 17 18 18 17 15 15 14 14 14 12 12
5 4 2 4 3 4 4 3 2 2 1 2 2 4 5 6 5 5 4 3 3 3 3 5 3 5 0 4 2 2 6 6 4 4 4 5 8 12 15 20 20 17 16 16 16 14 13 12 11 11 11 11 11 10 10 10 10 10 10 9 9 10 11 11 12 12 12 12 11 10 9 9 9 9 9 10 10 9 8 8 8 10 11 13 15 16 17 18 17 16 15 15 15 15 15 14 14
4 4 2 3 3 4 3 1 0 1 2 3 3 4 4 4 4 3 5 5 3 4 3 1 5 6 4 3 1 1 4 4 4 6 7 9 11 14 16 20 20 18 19 18 16 15 13 12 11 11 11 11 11 11 11 11 11 11 10 9 9 10 11 11 11 12 12 12 11 10 9 9 9 9 9 9 9 9 8 7 8 9 10 13 15 16 17 18 18 16 15 15 16 16 16 15 14
3 4 3 4 4 3 2 3 1 1 2 2 1 2 4 4 5 3 4 6 2 5 1 3 6 5 5 2 2 0 2 4 4 6 7 9 13 15 17 18 18 18 20 19 17 15 13 12 11 11 12 12 11 12 12 11 11 11 11 10 10 10 10 10 10 11 11 11 10 10 8 8 8 8 8 8 9 9 8 6 7 9 11 14 15 16 18 18 18 17 16 16 16 16 16 15 15
3 4 4 5 3 3 4 5 3 2 3 2 1 3 1 4 6 3 4 6 2 6 2 2 5 6 5 1 3 1 2 6 4 5 6 7 13 15 17 17 17 17 18 17 16 14 12 11 10 11 12 12 12 12 11 11 11 11 11 11 10 10 10 10 10 10 9 9 9 9 8 7 7 7 7 8 8 9 8 6 8 9 11 14 15 16 17 18 18 18 17 16 16 16 16 15 14
4 1 5 3 3 4 4 5 3 1 2 2 3 2 2 5 4 6 5 5 3 6 2 4 5 6 4 2 1 2 0 6 5 5 4 6 13 15 17 18 18 18 16 16 15 13 11 9 9 11 12 12 12 12 11 10 10 11 11 11 11 11 10 10 10 10 9 8 8 7 7 7 6 6 6 7 8 9 7 6 7 9 11 13 13 15 16 17 18 19 18 17 16 16 16 15 14
3 3 5 3 2 4 5 3 2 3 2 5 3 2 2 3 3 6 7 6 5 4 0 4 4 5 2 2 1 3 2 6 7 6 6 8 13 15 17 17 18 18 16 16 15 13 11 9 11 12 12 13 12 12 12 11 10 10 11 11 12 11 11 10 10 10 9 8 7 7 6 6 6 6 6 7 8 8 7 7 7 8 10 11 12 14 15 16 17 19 19 19 18 17 16 15 14
3 2 5 4 3 2 4 2 3 5 4 5 2 1 4 2 3 4 5 7 2 0 1 3 4 1 3 5 4 4 5 7 8 9 10 13 14 15 16 17 17 17 16 15 14 14 12 11 13 13 13 12 11 11 10 10 10 10 12 13 13 12 11 10 11 11 10 9 8 7 7 6 6 6 5 6 8 8 8 7 7 7 8 10 11 13 15 16 17 19 19 19 18 17 16 15 14
3 4 5 4 2 2 3 2 4 4 4 5 3 2 5 1 2 4 1 4 4 4 3 2 4 1 3 4 4 4 7 8 11 13 14 15 15 15 15 15 15 15 15 14 14 13 13 12 12 13 14 12 10 9 9 9 9 10 11 12 13 13 11 11 11 11 11 11 9 8 7 7 6 6 6 6 8 8 8 7 7 6 7 9 10 11 14 15 16 18 18 18 18 17 16 14 13
3 4 5 4 2 3 3 3 5 4 5 5 4 2 6 0 1 2 2 7 6 4 5 2 4 3 3 3 5 6 6 9 14 16 16 15 14 14 13 13 13 13 12 12 13 13 14 14 11 12 13 13 12 10 9 9 8 9 9 10 11 13 13 12 11 11 12 12 11 10 8 7 7 6 6 7 8 9 8 7 6 6 7 8 8 10 11 12 14 15 17 17 17 17 16 15 14
5 4 4 3 2 2 4 6 6 4 5 5 5 3 7 4 0 2 4 8 5 4 5 3 6 6 6 7 8 7 8 12 16 18 16 14 13 13 11 10 9 9 9 9 11 12 13 14 13 12 12 12 12 11 11 10 9 9 9 9 10 12 13 13 12 11 11 11 10 10 9 8 7 6 6 8 9 9 8 7 7 6 6 7 7 8 9 10 11 13 15 15 16 16 15 15 15
4 3 4 2 5 2 3 6 5 4 6 6 3 3 5 5 3 3 2 1 2 5 3 3 5 5 6 8 9 9 11 13 17 18 15 12 11 11 9 8 7 6 5 6 8 10 12 13 13 14 13 12 11 11 12 11 10 9 9 9 10 11 12 14 13 11 11 10 10 9 9 8 7 6 7 8 9 10 10 8 8 7 5 5 6 7 8 9 10 11 13 14 15 15 15 15 14
2 4 4 3 6 2 1 3 4 3 6 7 2 1 3 3 2 2 4 3 1 3 3 2 2 4 4 5 8 11 12 14 15 16 15 12 10 9 8 6 5 4 3 4 6 8 10 13 14 15 14 13 12 11 12 13 13 11 9 10 11 11 13 14 13 12 12 10 9 9 9 9 8 8 8 8 9 13 12 9 9 8 6 5 6 7 7 8 9 10 11 13 13 13 14 14 14
2 3 3 5 4 3 1 2 2 2 5 7 3 4 4 2 1 3 6 5 2 6 7 7 8 9 7 5 8 10 12 13 13 14 14 12 10 9 7 6 4 2 2 3 5 7 8 11 14 17 16 14 13 12 12 14 14 12 10 11 12 13 13 14 14 13 12 10 10 10 11 9 9 10 10 9 10 15 14 11 11 9 7 6 7 7 7 7 7 9 10 11 11 12 12 12 13
3 2 3 5 4 3 3 3 2 3 4 5 5 4 3 1 1 4 8 6 5 6 6 7 8 10 9 8 9 10 11 11 11 12 12 11 10 8 7 5 3 1 2 4 5 5 7 10 13 17 17 16 15 13 13 14 14 13 11 11 12 13 13 14 14 14 13 11 10 11 12 11 9 10 11 9 10 14 15 13 12 11 9 8 8 8 7 6 6 7 8 9 10 10 11 12 13
4 2 2 2 3 4 3 3 2 4 6 4 4 3 2 2 0 3 7 6 5 3 3 7 8 11 13 11 10 8 8 9 10 11 11 11 9 8 6 4 2 1 1 3 3 4 5 8 11 15 18 19 17 13 12 13 14 15 13 13 14 14 15 15 14 14 14 12 10 10 11 11 10 10 10 8 8 9 12 15 13 12 11 9 9 9 9 7 6 6 6 6 7 9 10 10 12
5 1 2 1 2 5 5 4 4 6 7 5 4 3 2 5 3 1 4 4 2 0 6 11 12 14 14 11 9 8 9 10 11 11 10 10 9 7 6 4 2 2 2 2 3 5 5 7 8 12 17 20 17 12 11 11 13 16 16 17 18 16 15 15 14 13 13 11 10 10 10 11 11 11 10 8 9 8 9 12 12 12 11 9 9 9 8 7 8 8 6 4 4 7 8 8 11
4 2 2 1 0 2 3 4 5 5 5 3 4 3 5 5 3 1 4 5 3 4 7 11 12 12 11 8 8 9 10 11 12 12 11 9 8 8 6 5 4 4 4 3 3 4 4 6 7 8 14 19 16 11 12 13 14 16 16 17 20 18 15 15 14 13 12 11 10 10 10 12 12 11 11 9 9 9 8 9 9 9 10 9 9 9 7 8 11 11 8 6 4 5 7 8 9
1 3 1 0 1 2 2 3 4 5 3 4 4 2 6 3 2 2 4 7 5 5 7 7 9 8 7 7 7 10 10 11 13 13 11 9 8 8 7 5 5 6 4 3 3 3 4 5 5 7 12 16 13 11 15 17 17 18 18 18 19 19 18 17 16 15 14 13 12 13 13 13 13 12 12 11 9 8 9 10 8 7 8 9 9 9 8 10 14 13 10 8 6 4 6 8 8
2 4 2 1 2 3 3 4 5 2 1 5 6 4 4 3 1 3 4 7 6 7 6 5 7 7 6 6 6 10 10 12 14 14 12 10 9 9 8 6 6 6 4 4 4 4 6 6 6 8 11 13 12 15 19 20 20 20 20 19 19 20 19 18 17 15 16 16 16 16 15 14 14 14 13 13 12 11 11 11 10 8 8 8 7 7 8 12 14 13 11 10 7 5 6 8 8
2 3 1 4 5 5 3 5 5 2 1 5 7 3 3 3 1 5 6 8 6 8 7 5 7 5 6 6 5 8 9 12 14 13 12 10 10 10 10 8 7 6 5 5 5 5 7 8 9 11 13 14 15 19 21 20 21 21 21 20 20 20 18 18 17 15 16 16 16 16 15 14 14 15 15 15 14 13 12 12 11 11 10 9 9 10 11 13 13 13 12 10 8 7 7 8 7
1 3 2 6 7 5 5 4 4 5 2 5 7 1 5 3 5 5 5 9 6 8 7 5 6 5 5 5 4 5 7 10 12 11 11 10 9 10 10 8 7 7 6 6 6 7 9 10 13 15 17 18 18 21 22 22 22 22 22 21 21 20 18 17 16 17 17 16 15 15 14 14 14 15 16 16 15 15 14 13 13 13 12 12 11 12 13 12 11 11 10 9 8 7 6 7 7
0 2 1 4 7 5 6 1 4 6 3 5 6 2 6 7 8 4 5 10 8 7 7 6 6 5 5 5 4 4 6 9 10 11 10 9 8 9 10 9 8 8 7 7 8 9 10 12 16 18 19 20 20 22 22 23 23 22 22 21 20 20 18 16 16 17 16 16 15 14 13 13 14 15 15 15 15 15 14 14 14 14 13 12 12 12 12 12 11 10 8 7 7 6 5 6 6
0 1 2 2 2 4 7 1 6 6 3 3 6 2 7 9 8 4 6 9 10 9 8 7 6 6 5 5 5 4 6 8 10 11 11 9 9 10 11 11 11 10 10 10 10 11 11 14 18 19 20 20 21 22 22 23 23 21 22 21 18 18 19 18 17 16 16 16 16 15 15 14 14 14 14 15 15 15 15 15 15 15 14 13 13 13 12 12 11 10 9 7 7 7 7 7 8
2 1 3 3 2 5 8 3 8 7 2 2 5 2 7 9 7 6 7 7 9 9 8 8 7 7 6 5 5 5 5 8 11 12 11 10 9 10 12 12 11 11 11 11 13 13 14 17 19 20 21 22 23 23 23 25 25 23 22 22 20 18 18 19 19 19 19 18 18 19 18 17 17 16 15 15 16 17 17 17 17 16 16 15 15 15 13 12 11 10 9 8 7 8 7 9 11
3 1 3 3 2 3 6 3 4 5 3 1 3 3 4 5 4 4 7 7 8 7 8 9 8 8 7 6 5 5 5 6 9 11 12 11 10 11 12 12 12 12 11 12 14 15 17 19 20 20 22 24 26 26 24 24 25 24 23 23 22 19 18 19 21 21 21 20 20 21 20 19 18 18 17 17 18 19 18 19 19 18 17 16 16 15 15 14 12 11 11 10 8 7 8 11 13
4 0 3 4 3 2 3 4 3 2 5 4 5 4 6 6 3 3 7 7 8 8 9 10 8 7 7 6 6 6 6 5 7 11 13 11 10 12 12 12 12 12 12 13 15 17 19 20 20 21 22 24 27 28 26 24 24 24 24 23 23 21 21 21 22 21 21 21 20 21 20 19 19 19 19 19 20 21 21 22 21 20 18 18 18 18 18 17 16 15 15 14 11 11 12 14 17
3 3 2 3 3 3 4 4 2 5 4 5 5 5 11 11 6 5 7 7 9 10 9 8 8 8 7 7 7 7 7 6 8 13 13 12 11 12 13 13 12 12 13 14 15 18 20 21 22 23 24 25 26 27 27 27 27 26 25 25 25 25 24 24 23 22 22 22 21 21 20 20 21 20 20 20 22 23 24 24 23 22 20 19 20 21 21 20 20 20 21 20 18 17 17 19 22
7 5 4 4 3 4 5 5 5 7 4 5 8 8 11 13 10 8 8 7 9 10 7 5 7 7 7 8 7 8 7 7 10 14 13 12 11 13 15 15 14 14 15 15 16 18 20 22 23 24 26 26 27 28 28 29 29 28 28 28 28 28 27 26 25 24 24 23 23 22 21 22 22 22 21 21 23 24 25 24 24 22 20 20 21 22 23 22 22 22 24 24 23 22 22 23 26
5 4 3 4 4 5 5 4 6 5 5 6 9 9 11 11 11 9 7 7 9 10 9 8 8 8 9 10 9 9 8 7 11 14 14 12 12 14 16 16 16 16 16 17 18 19 20 23 25 26 26 26 28 29 29 29 29 30 31 31 31 30 29 29 28 27 26 25 24 23 23 23 23 23 23 22 23 24 25 24 23 22 21 21 24 25 24 22 22 21 22 24 24 24 23 22 23
2 3 3 4 4 6 6 4 5 2 4 6 6 7 11 11 11 9 5 8 11 13 13 12 12 11 10 10 10 9 6 6 10 12 14 14 14 15 17 18 19 19 19 20 21 21 20 23 26 27 26 26 27 29 30 29 30 31 32 33 33 31 29 29 30 28 27 27 25 25 25 24 24 24 24 23 24 25 25 26 25 25 24 25 26 26 24 23 22 21 20 22 25 26 25 19 16
4 2 2 5 4 4 7 5 3 0 3 5 4 4 9 11 11 9 7 10 11 13 15 15 14 13 12 11 11 9 8 7 8 10 14 16 16 17 18 19 21 21 20 21 22 22 21 23 26 27 27 26 26 28 29 29 30 31 32 33 33 31 30 30 30 29 28 27 27 26 26 26 26 27 27 27 28 28 28 28 28 27 26 25 26 25 25 24 23 22 21 21 23 25 25 22 15
5 3 3 5 3 2 4 5 3 1 2 3 3 4 7 8 8 9 11 10 8 8 12 13 12 13 13 13 12 12 13 11 10 9 11 16 17 18 18 20 21 21 20 21 23 23 23 24 25 25 27 27 28 28 29 30 31 31 32 32 32 32 31 31 31 30 29 29 29 29 29 29 30 30 30 29 29 29 28 28 27 26 25 24 24 25 25 24 23 23 22 21 21 23 24 23 20
5 6 6 6 5 6 6 4 3 3 4 2 3 6 7 7 10 12 6 4 6 6 8 12 11 10 9 9 10 11 13 13 12 11 11 15 18 18 19 21 22 22 20 22 24 23 24 25 24 25 26 28 28 29 30 31 32 32 33 33 32 33 32 32 32 31 31 32 32 32 32 31 31 30 29 28 28 28 27 26 25 25 25 23 23 24 25 24 23 22 22 21 21 22 23 23 21
5 6 10 10 8 8 5 1 4 4 5 4 2 3 7 5 9 12 3 1 7 5 7 13 12 9 8 9 10 10 10 11 11 12 13 16 18 19 19 22 23 22 21 21 23 24 24 25 24 24 26 27 27 28 31 32 32 32 33 33 33 34 31 30 33 34 34 35 35 34 32 30 29 29 28 27 27 26 26 25 24 24 24 23 23 24 24 23 23 22 22 22 22 20 21 23 22
4 6 10 11 8 7 5 3 2 1 4 4 2 2 7 6 6 9 4 4 9 7 8 12 10 8 10 10 10 11 11 10 9 10 13 16 19 19 19 22 24 23 22 22 22 23 24 24 24 24 25 27 27 29 30 31 31 31 32 33 34 35 33 30 33 36 36 36 35 33 32 30 29 28 28 27 26 26 25 24 24 24 24 23 23 23 24 23 22 22 20 21 21 19 18 21 20
4 5 7 9 8 7 6 6 4 3 3 4 3 3 5 9 6 6 6 7 9 10 12 13 10 10 10 10 10 11 11 11 10 10 11 16 20 20 20 23 24 24 24 23 23 24 24 25 25 25 26 28 29 30 31 30 31 32 33 34 34 36 36 35 36 36 36 36 35 33 32 31 29 28 27 27 25 25 24 24 23 23 24 23 22 23 23 21 20 20 18 18 18 18 17 19 18
6 3 6 7 6 5 4 5 3 1 2 4 4 1 3 9 5 1 2 7 9 12 16 16 12 11 11 10 9 10 10 10 11 11 13 17 21 22 22 23 23 24 25 24 25 24 24 25 26 26 27 29 30 31 31 30 31 32 34 36 36 37 38 38 37 37 36 35 35 33 32 30 29 27 26 25 25 24 23 23 23 23 23 22 21 21 20 19 18 17 17 17 17 18 17 16 17
4 5 7 6 5 5 5 4 3 2 1 6 6 3 3 8 3 2 1 4 9 12 14 13 10 11 11 9 9 9 9 9 10 11 15 19 22 23 24 23 22 24 26 25 25 25 26 27 27 28 29 30 31 31 31 30 31 33 35 38 40 39 39 38 37 37 36 35 35 33 31 30 28 27 26 25 24 23 23 22 21 21 21 20 19 19 18 17 17 17 17 16 17 17 17 16 16
6 7 7 7 6 5 4 2 4 1 4 6 9 9 6 7 2 4 3 4 7 9 9 9 7 8 10 9 9 10 10 10 9 9 13 18 21 23 24 24 23 24 25 25 26 26 28 28 29 30 30 29 30 30 30 31 32 34 36 40 42 42 41 40 39 37 35 35 35 33 31 29 28 27 25 24 23 22 21 20 20 20 19 18 18 18 17 17 16 16 16 16 16 16 16 15 15
6 5 5 4 4 4 4 4 4 2 6 5 8 10 9 9 5 4 5 5 5 7 7 9 8 8 9 9 9 10 10 10 10 9 11 16 18 21 24 24 23 24 25 26 27 28 30 31 32 33 30 28 28 29 30 32 33 35 38 40 42 43 42 41 40 38 36 36 35 33 32 30 28 27 25 24 22 20 20 19 19 19 18 18 18 17 17 16 16 16 15 16 16 16 14 13 13
4 5 6 4 2 2 2 3 0 4 6 4 4 5 5 10 8 5 8 9 8 8 8 9 7 7 9 10 10 10 9 10 10 9 10 12 16 20 23 24 24 25 27 28 29 30 31 32 34 33 30 27 27 28 30 33 35 37 39 40 41 40 40 40 39 38 37 35 35 33 32 30 28 26 24 23 21 19 19 19 18 18 18 17 17 17 16 15 14 14 14 15 14 14 13 12 12
6 6 6 5 3 1 3 4 2 4 5 4 1 3 3 6 4 9 13 12 8 7 8 8 6 7 9 10 10 9 9 10 10 10 10 11 15 20 23 25 25 26 28 30 30 31 31 32 33 33 31 29 28 29 32 34 36 37 38 39 39 39 38 38 38 37 36 34 33 32 31 29 28 26 24 23 21 19 19 18 18 18 17 16 16 15 15 14 13 13 13 13 13 12 11 11 11
7 6 6 6 6 4 4 4 4 4 3 3 1 2 3 2 2 7 9 7 5 5 6 5 6 6 6 7 8 9 10 10 9 10 10 12 18 23 24 26 27 28 29 31 32 32 32 32 32 32 32 32 31 31 33 35 36 37 37 38 38 37 37 37 36 35 35 33 32 31 30 28 27 26 24 23 21 20 19 19 18 17 17 15 15 14 13 13 11 11 11 11 11 11 9 9 9
4 3 4 5 6 5 3 3 5 3 2 3 3 4 5 4 5 6 5 6 6 6 7 4 5 3 5 6 8 10 10 10 10 10 10 14 20 24 25 26 27 28 30 31 32 33 33 33 33 33 33 34 33 33 35 36 37 37 37 37 37 37 37 37 36 35 33 32 31 30 29 27 26 26 24 23 21 20 19 18 17 16 16 14 13 12 12 11 10 9 10 9 9 9 7 7 7
2 3 4 4 4 5 3 3 1 3 3 4 3 6 6 3 7 7 6 8 8 6 7 6 5 3 6 7 8 10 10 10 11 11 10 14 20 23 25 27 28 28 30 31 33 34 34 34 33 33 34 34 34 34 36 37 38 38 37 37 37 37 37 36 36 35 33 32 30 29 28 27 26 25 25 23 22 20 18 17 17 16 14 13 12 11 10 10 9 8 8 7 7 7 5 5 6
5 3 6 2 2 2 2 2 3 2 4 5 3 8 6 2 6 3 2 6 9 8 8 7 5 4 7 8 8 9 10 10 9 10 11 14 20 23 25 27 28 29 30 31 33 34 34 34 34 34 35 36 36 36 38 39 39 39 38 38 38 37 37 36 36 35 33 32 30 29 28 27 26 25 24 23 21 20 18 17 16 15 14 12 11 11 10 9 8 7 6 5 5 5 3 3 4
5 4 5 4 1 1 2 2 2 1 3 5 2 5 5 7 6 1 3 9 11 11 9 7 7 9 9 8 8 9 8 9 9 10 10 13 19 23 25 26 27 29 30 31 32 33 33 33 34 35 35 36 37 37 39 39 40 40 39 38 38 38 37 36 35 34 33 32 30 29 28 28 27 25 24 23 21 20 19 17 15 14 13 12 11 10 9 8 7 6 5 4 4 3 2 2 3
3 2 3 2 2 3 3 3 3 3 3 4 2 3 5 7 7 7 10 12 12 12 9 8 12 13 9 8 9 9 10 10 10 11 10 12 18 23 25 27 27 28 30 31 32 33 34 33 34 35 36 36 37 38 40 40 40 40 39 39 38 38 37 36 35 34 33 31 30 30 29 28 27 25 24 22 21 20 19 17 16 14 13 12 11 10 9 7 6 5 4 3 3 3 2 1 2
4 4 5 3 1 2 1 1 2 4 2 3 3 6 8 4 5 9 12 11 12 11 10 11 13 10 9 9 10 10 10 11 10 11 10 12 18 22 24 26 27 29 31 32 33 34 34 35 35 37 38 38 39 39 40 41 40 40 40 40 39 38 38 37 35 34 33 32 31 30 29 28 26 25 23 22 21 19 18 17 16 15 13 12 11 10 8 7 5 4 4 3 3 3 2 2 1
7 7 9 8 6 5 2 3 2 3 2 4 3 8 11 4 3 5 6 7 9 10 10 11 10 8 9 9 10 11 10 11 11 10 10 12 18 21 24 27 29 31 32 33 34 35 36 37 37 38 39 40 41 41 42 42 41 41 41 40 39 39 38 37 36 34 33 32 31 30 29 28 26 25 23 22 21 20 18 17 16 15 14 13 11 10 9 7 6 5 4 3 3 3 2 2 2
Wind_Direction
353 7 3 332 317 340 35 71 70 357 71 83 38 84 86 228 162 87 27 359 59 357 352 49 47 75 100 114 129 114 69 105 183 137 180 196 107 173 217 219 207 183 177 167 159 160 154 151 149 146 141 133 128 120 114 112 110 109 108 110 114 116 115 108 108 112 104 97 98 99 97 95 94 92 91 87 84 82 82 83 81 76 69 63 57 52 48 42 36 31 26 20 12 7 15 30 43
354 359 3 351 335 72 233 71 90 358 52 75 336 117 168 338 58 123 165 125 160 202 85 87 79 76 100 122 128 92 44 345 308 146 141 128 108 119 172 151 165 168 174 171 162 162 158 154 154 152 145 139 133 126 120 117 114 110 111 114 117 122 122 116 112 113 110 106 101 100 101 97 95 93 90 87 83 80 81 82 79 75 70 62 54 48 43 38 33 29 24 19 14 13 21 41 63
355 351 10 56 98 63 63 47 95 79 70 100 307 263 107 77 128 190 203 175 218 206 125 108 87 62 88 94 53 60 57 326 9 45 56 129 124 114 156 156 157 164 172 175 167 164 162 155 156 155 147 143 137 131 126 121 115 111 111 115 119 122 123 120 116 116 116 113 107 104 104 100 98 94 89 87 84 83 82 82 79 75 69 60 50 45 41 38 35 31 26 23 24 27 36 53 75
358 355 5 55 79 35 59 50 116 116 108 144 165 273 249 147 173 213 223 225 249 147 126 87 62 347 71 88 40 57 80 311 352 340 88 137 132 126 160 170 167 167 171 177 173 168 165 159 158 156 151 147 141 136 131 125 118 114 112 115 121 123 123 124 122 119 121 119 114 110 108 106 102 97 93 90 89 86 84 83 82 75 66 57 49 45 42 39 37 34 31 31 34 39 46 61 81
3 21 17 48 79 48 83 73 97 100 154 171 135 256 236 178 187 211 236 288 323 82 119 90 74 325 61 80 52 85 325 287 349 40 109 133 136 135 163 176 174 169 172 178 176 173 170 164 162 159 155 151 147 142 135 128 121 118 116 119 126 130 128 129 129 124 123 121 118 114 110 112 108 101 98 94 94 90 87 85 81 71 62 55 49 45 42 40 39 37 37 38 42 48 52 64 83
11 61 45 52 85 101 84 74 85 80 195 165 139 222 221 192 185 183 194 343 17 64 107 84 120 122 65 35 54 80 310 275 1 36 104 135 145 147 164 174 175 169 171 178 178 177 176 172 166 164 160 157 153 147 142 133 127 123 120 121 130 136 134 134 135 131 127 125 122 118 115 116 112 108 105 99 96 93 89 86 79 70 62 55 49 45 43 42 41 42 44 47 51 57 62 69 82
10 54 35 56 45 43 86 101 123 125 189 163 154 181 204 207 183 142 109 83 40 27 57 92 132 110 77 43 70 35 24 68 110 61 118 133 158 156 161 171 172 169 169 174 176 177 181 179 173 172 167 163 159 155 151 143 138 132 124 124 133 139 138 137 137 136 134 131 127 123 122 122 118 116 111 105 103 98 91 84 79 71 63 56 49 44 45 46 45 46 51 55 60 65 70 76 86
24 53 14 80 39 28 93 101 136 170 138 166 168 177 194 198 178 126 120 119 83 17 48 167 146 90 20 64 108 7 43 62 83 105 137 122 167 158 160 172 170 168 170 171 173 173 178 182 180 178 175 172 167 163 161 153 148 138 130 128 135 142 141 139 138 139 139 134 129 127 129 128 125 124 116 113 113 107 99 89 79 72 64 55 48 46 48 49 48 51 56 61 66 69 73 80 91
47 51 38 79 69 48 72 65 92 180 157 158 166 192 202 188 161 122 121 81 111 82 23 233 173 96 121 60 98 269 39 53 82 121 134 109 148 154 157 170 168 169 171 170 172 170 171 178 182 180 179 179 174 171 169 162 155 145 139 136 139 145 145 143 143 144 144 138 133 131 133 133 130 127 122 118 118 113 107 101 88 75 63 53 49 51 53 53 53 55 60 65 68 71 74 83 93
47 34 90 77 79 73 64 83 97 172 203 201 178 186 206 182 131 104 116 101 108 89 19 271 93 104 133 85 134 282 35 54 88 116 121 109 127 143 150 162 169 173 173 171 171 170 170 176 182 183 181 181 180 177 175 169 161 155 150 146 146 150 149 149 148 148 148 143 139 136 135 133 133 131 128 125 123 120 114 108 94 77 62 55 54 56 58 57 56 59 63 67 70 72 77 84 91
40 357 94 77 77 113 154 168 217 204 260 273 202 240 216 165 109 76 99 107 74 90 92 41 84 121 102 66 239 254 55 78 94 107 108 113 122 135 142 150 164 172 173 171 169 171 173 178 184 188 184 183 185 181 179 176 169 165 161 155 154 157 155 154 154 154 153 149 145 141 138 137 137 136 135 134 130 126 121 113 93 77 64 59 58 61 62 60 59 61 64 67 70 73 78 84 89
83 340 66 84 114 161 179 153 181 207 305 323 129 287 195 101 94 116 115 115 81 85 57 357 138 146 84 352 244 243 88 90 99 107 101 124 125 128 136 140 150 160 165 166 166 170 175 183 192 195 191 188 186 184 183 181 177 172 168 162 158 160 161 163 163 162 160 156 151 149 150 145 142 143 141 138 137 133 126 114 96 80 68 62 63 66 65 63 62 62 64 66 68 72 75 80 84
112 149 84 87 141 136 137 138 185 145 340 241 189 273 78 76 115 167 142 95 55 95 29 316 148 119 87 222 237 290 103 101 112 121 105 133 133 127 133 138 142 148 153 159 162 164 172 183 196 200 194 193 191 186 185 185 183 176 173 171 164 162 163 169 172 170 170 163 155 155 160 159 152 150 147 142 140 139 131 116 102 85 69 65 68 69 68 67 64 64 66 66 66 69 72 74 78
128 157 103 105 87 115 135 127 188 139 224 252 237 289 41 78 165 167 131 79 28 107 294 322 120 107 109 172 265 269 204 123 124 136 119 127 140 137 135 137 141 146 151 159 160 162 168 172 186 200 199 196 194 189 190 188 186 183 179 179 174 167 163 169 175 176 177 173 163 158 160 166 168 163 156 148 146 147 138 127 114 93 73 67 73 73 71 70 67 66 67 66 66 66 69 71 74
130 130 87 106 61 99 152 138 165 149 201 244 234 188 69 81 142 113 122 119 75 288 277 10 55 137 166 157 205 218 168 145 138 141 127 125 138 141 141 141 142 145 149 157 159 165 170 167 169 184 196 196 193 192 195 191 188 192 186 186 184 173 166 169 177 182 183 180 174 168 164 166 173 174 166 154 155 157 149 141 129 103 77 70 76 76 75 73 69 68 69 69 67 67 67 69 70
114 106 68 87 79 127 164 144 132 135 211 232 242 149 89 13 113 102 250 134 121 355 17 16 6 5 135 146 183 159 147 156 154 149 133 127 132 136 141 143 144 146 149 154 157 163 168 172 166 166 179 186 190 194 199 198 195 198 195 195 190 180 175 175 182 185 184 186 185 182 179 174 173 173 169 163 164 165 159 153 139 114 87 76 78 81 81 75 70 69 69 70 69 68 67 67 68
64 76 65 71 112 151 170 166 161 169 213 234 260 189 116 263 6 117 341 59 92 25 41 19 354 46 81 110 132 122 144 159 158 154 138 130 130 130 133 137 145 148 151 157 160 161 165 176 174 163 170 177 190 197 194 195 196 202 204 202 194 188 184 181 188 190 186 188 187 187 188 182 175 174 174 172 172 173 169 161 149 129 101 84 83 89 88 78 70 68 68 69 68 66 64 64 67
56 78 86 98 156 161 179 182 196 177 168 201 223 174 131 148 203 133 38 40 75 62 43 22 20 45 74 102 113 117 144 153 156 153 140 135 132 126 120 125 136 142 150 159 163 167 170 178 179 175 173 175 188 197 190 183 187 197 204 205 202 198 193 191 192 191 190 188 187 188 190 188 182 184 188 184 183 183 179 171 160 144 115 91 90 96 95 85 75 68 67 67 65 63 60 60 62
82 107 87 163 196 192 202 182 200 187 159 174 187 161 145 159 164 124 100 357 102 85 39 20 46 61 80 95 110 120 133 140 151 149 139 133 132 125 115 115 124 131 149 165 171 174 179 183 184 183 181 177 182 192 189 180 182 191 201 207 207 203 200 201 198 192 191 186 188 190 191 192 188 192 194 193 194 189 184 177 169 154 135 109 100 105 101 91 80 71 68 64 60 58 56 56 58
110 107 82 230 208 178 286 170 184 198 150 144 142 145 138 167 167 124 157 168 187 164 172 156 162 173 137 104 108 117 121 123 136 139 130 122 119 118 113 110 110 122 156 187 192 187 187 190 190 189 187 180 176 179 178 180 185 186 194 200 202 204 201 204 205 199 191 182 188 191 192 193 188 193 191 191 197 190 183 178 176 167 157 138 117 120 114 98 86 78 75 66 57 55 55 56 58
82 96 140 210 172 120 265 213 147 109 126 138 125 98 122 204 169 125 139 132 270 243 204 185 187 178 165 145 117 117 117 114 122 127 123 116 111 109 109 104 103 127 190 222 220 206 200 196 194 194 192 184 175 172 170 182 187 180 184 189 194 202 198 199 202 203 196 189 192 190 191 191 189 195 191 190 194 189 185 180 180 177 172 156 135 135 129 111 100 89 81 73 64 59 56 59 62
71 18 191 193 141 129 231 229 168 110 95 99 106 120 154 202 64 137 148 160 232 242 213 185 170 161 156 149 130 118 115 112 116 121 120 117 113 111 111 111 119 176 223 238 236 211 203 199 197 196 194 188 178 173 173 182 186 181 185 182 185 193 194 195 195 201 207 204 198 191 191 190 189 193 193 196 192 191 193 186 181 183 181 163 145 144 141 128 116 103 88 79 74 63 54 60 64
101 326 301 228 163 148 193 204 190 128 106 116 153 172 133 105 299 181 169 196 243 258 177 146 141 146 143 137 130 123 120 119 118 121 124 125 120 117 120 119 131 180 236 260 208 171 190 193 196 198 195 189 181 180 179 179 182 185 193 189 186 188 191 194 192 197 204 204 202 196 194 192 191 186 187 195 185 188 194 184 184 188 182 167 152 152 154 150 141 123 100 80 72 62 53 57 62
92 153 294 310 144 147 177 173 150 125 129 174 166 112 136 159 188 191 189 226 254 177 108 115 126 134 133 128 129 135 134 128 123 123 124 127 127 124 124 119 109 97 55 15 129 153 181 181 186 196 194 187 182 181 177 178 180 184 195 189 178 179 183 185 188 195 196 195 200 198 195 194 189 175 174 186 180 175 179 181 190 191 180 167 160 166 172 171 163 148 127 100 73 64 57 56 60
73 152 240 321 22 190 198 159 141 140 143 152 112 128 217 194 159 185 213 207 187 146 107 111 121 123 128 129 134 142 140 133 129 128 126 128 135 134 127 120 109 90 69 54 103 154 172 163 173 189 190 185 183 177 168 172 173 178 185 173 161 166 169 165 172 181 180 185 191 186 186 184 178 170 171 179 178 173 170 176 187 189 178 170 175 186 194 188 170 156 145 133 104 80 71 69 66
182 157 208 288 318 284 195 181 183 179 166 140 127 248 260 240 178 238 211 183 179 138 112 120 123 122 134 137 145 146 147 146 139 136 134 136 146 144 134 131 124 104 90 83 100 146 138 138 155 166 178 182 181 168 160 161 161 167 170 159 153 157 156 151 157 160 157 163 165 162 169 174 172 171 171 169 168 164 161 163 167 182 186 181 188 197 195 181 168 160 153 142 127 108 92 91 84
175 145 187 208 298 298 183 207 231 199 201 171 168 231 277 314 229 242 224 180 171 133 128 140 130 138 149 145 155 148 150 155 148 143 139 143 149 145 139 140 132 116 115 118 108 121 121 124 136 143 162 173 172 160 155 154 155 160 159 155 152 150 149 148 151 151 146 146 146 148 153 158 162 160 156 156 157 155 155 156 158 170 178 176 177 177 169 161 158 157 152 144 141 128 110 109 101
132 130 263 299 328 308 219 219 240 181 221 179 153 210 290 356 240 230 204 173 167 147 152 162 143 152 155 152 159 147 149 156 156 154 151 153 152 147 144 141 136 129 126 121 118 128 128 130 134 138 147 156 161 155 151 152 153 154 152 151 148 145 148 149 150 150 145 141 141 143 141 142 147 148 147 148 151 150 151 151 152 155 155 152 152 152 149 148 148 147 144 145 148 138 120 112 103
112 83 328 305 354 330 250 233 210 163 192 178 134 325 294 227 229 249 180 159 157 153 162 175 164 166 161 157 158 154 154 156 163 163 157 156 153 152 147 140 144 139 128 123 131 142 142 140 139 140 143 150 157 152 149 150 148 147 146 145 143 142 145 145 145 145 141 140 141 140 138 137 139 142 144 145 146 145 143 144 145 142 139 139 141 144 144 145 147 141 139 147 151 149 128 106 97
131 53 71 304 1 330 275 296 154 155 181 174 138 286 273 242 249 266 167 155 147 161 180 184 179 178 174 171 162 170 168 161 164 160 157 158 157 157 149 147 155 146 139 141 141 147 153 147 143 144 144 150 154 150 149 146 144 144 139 137 139 140 143 146 142 137 136 139 141 141 141 140 139 140 142 143 143 141 141 140 138 132 130 133 136 141 141 138 140 134 128 135 136 128 107 90 84
19 8 32 349 7 282 292 318 148 157 209 155 121 224 263 267 267 225 179 165 158 176 193 187 189 189 184 184 172 181 190 173 165 159 161 165 163 160 152 151 155 151 148 151 149 151 155 148 147 149 146 149 150 148 150 144 143 145 137 135 140 138 140 144 140 134 135 136 138 140 141 143 142 142 143 144 142 141 142 137 131 125 124 128 126 128 129 121 121 117 106 105 98 85 75 72 72
37 19 315 334 174 264 305 281 166 162 222 121 123 206 268 276 265 197 176 174 171 182 196 192 195 194 188 193 181 184 199 180 166 162 164 169 169 162 156 155 155 156 155 156 156 155 153 148 150 151 151 154 151 149 153 146 142 145 139 136 140 139 139 140 138 136 135 134 136 134 135 137 137 137 139 143 142 138 136 130 124 122 123 124 119 115 113 103 99 100 88 76 72 69 69 77 81
355 119 250 268 184 271 318 300 207 166 132 170 196 224 266 286 289 193 176 179 181 189 202 200 200 198 192 193 189 183 184 180 173 168 166 172 174 163 158 159 157 157 159 159 159 158 153 150 151 152 152 154 149 146 151 146 142 144 141 136 138 142 143 140 137 137 134 133 132 129 129 131 132 133 135 138 136 132 130 127 123 124 124 123 118 111 104 94 89 88 80 72 72 82 90 93 94
316 349 233 248 203 221 295 298 287 143 141 202 227 239 249 265 296 208 199 185 185 204 210 205 202 199 197 193 193 191 182 185 185 174 170 175 175 165 160 162 159 157 161 161 160 160 156 152 153 154 153 151 145 143 147 146 141 140 137 134 136 139 139 136 135 135 133 132 132 130 132 132 132 132 131 131 129 125 126 125 124 124 124 120 114 105 99 94 88 84 82 81 85 93 96 99 102
202 200 209 257 241 217 246 274 235 156 170 205 202 237 255 264 265 217 217 198 196 217 214 206 206 200 202 198 198 199 189 196 193 176 173 178 175 166 161 162 162 158 158 160 160 160 157 154 154 153 152 151 146 143 145 144 138 135 133 131 130 130 131 132 133 133 131 132 132 132 133 131 129 127 126 126 123 122 123 123 122 121 119 114 106 100 97 95 91 86 82 82 87 91 93 102 107
172 180 167 194 238 248 232 253 239 179 171 221 206 220 244 254 254 228 218 206 210 230 224 209 211 206 206 203 203 200 194 202 192 177 176 182 177 167 163 163 162 156 156 158 159 159 158 156 153 150 150 150 147 143 142 141 135 131 130 129 126 124 126 128 128 129 128 128 128 128 129 126 124 123 122 122 120 119 119 120 120 117 115 109 101 97 95 94 91 87 82 82 89 93 97 106 110
147 145 161 201 223 265 255 260 270 181 160 239 220 222 242 246 254 246 208 196 219 233 230 222 213 209 209 205 203 197 194 194 182 177 179 183 180 170 166 165 160 152 152 154 153 152 155 158 156 150 148 149 149 146 143 142 139 134 130 127 124 122 124 125 124 125 125 125 125 125 124 122 122 121 120 120 118 118 118 118 118 114 110 103 96 93 91 89 86 84 84 81 85 88 92 106 113
178 173 226 257 225 252 260 249 283 177 171 259 240 230 252 250 254 255 186 181 219 221 219 223 215 212 212 206 203 193 181 176 175 179 179 179 180 173 168 167 163 155 151 153 151 149 151 157 157 151 148 149 149 148 145 142 141 140 135 130 127 124 124 125 123 124 124 124 124 123 121 121 120 119 118 118 117 117 116 115 111 106 102 98 96 93 89 87 83 81 82 80 80 79 78 91 114
230 221 242 266 240 265 280 269 297 146 177 262 270 240 258 257 253 250 206 199 223 217 213 220 214 211 210 202 198 184 173 175 180 184 179 178 178 173 171 169 165 159 157 158 156 156 157 158 158 154 154 154 151 150 147 143 140 139 136 132 131 128 125 125 125 125 126 125 124 122 121 120 119 117 116 115 113 112 110 109 106 103 101 99 97 94 89 86 82 80 79 81 83 79 74 71 80
222 213 220 252 244 230 275 285 303 282 222 256 284 282 268 266 264 251 226 216 234 228 220 227 219 213 211 202 196 184 179 179 179 184 181 178 178 178 175 171 167 162 161 164 162 163 164 163 162 160 160 158 155 152 148 144 140 136 134 132 132 130 126 126 125 125 127 125 123 122 121 120 118 116 114 112 110 109 108 107 106 105 102 99 97 94 90 86 83 81 78 80 81 82 80 70 67
234 212 207 229 232 214 235 281 320 328 331 330 326 310 276 250 251 253 238 214 252 237 216 231 231 220 210 197 197 191 183 179 176 179 182 179 180 182 179 173 170 166 166 169 168 169 167 165 167 165 162 160 157 154 150 147 142 137 132 128 127 126 124 127 126 124 125 124 122 121 120 119 118 115 114 112 111 111 109 109 107 105 102 99 96 92 91 87 85 83 81 81 80 84 88 82 74
258 224 208 215 220 219 226 333 21 356 328 327 8 302 278 258 243 254 269 191 245 231 210 230 230 215 201 195 196 191 185 184 178 176 178 179 179 181 180 176 173 171 173 173 173 173 171 168 169 168 165 162 161 157 153 151 148 144 140 134 129 126 124 126 127 126 125 125 123 122 120 119 118 116 115 113 112 111 109 107 105 103 100 96 94 92 92 90 87 85 83 82 82 84 90 88 84
259 236 205 204 200 196 192 150 91 262 264 297 52 182 271 283 240 239 224 208 245 246 237 239 229 212 207 202 196 185 183 183 179 177 175 177 179 180 181 179 177 175 176 177 176 175 174 172 171 171 168 163 162 159 155 153 150 149 148 144 139 135 131 128 129 129 128 126 125 124 122 121 119 117 116 114 112 110 107 105 102 100 98 96 95 93 91 89 87 85 81 80 82 81 82 88 89
242 244 180 178 183 193 192 171 184 228 251 316 9 117 267 279 252 227 189 197 253 261 253 249 232 217 214 208 198 186 184 178 173 176 177 179 182 181 180 179 179 177 176 179 178 176 176 175 172 172 168 162 161 160 158 158 156 152 149 145 141 138 135 131 131 130 129 129 128 126 124 122 121 118 116 113 110 108 105 104 102 100 99 98 95 91 89 88 86 85 83 81 84 82 79 86 90
242 212 139 147 162 172 150 141 174 298 15 297 299 107 262 271 266 324 176 201 248 255 249 248 232 217 215 208 197 184 182 180 175 177 180 182 182 182 179 177 178 177 176 179 178 176 177 175 172 170 167 163 162 162 161 161 160 157 152 146 140 137 136 134 133 132 132 132 130 128 126 124 122 118 116 113 110 108 105 104 102 100 98 96 94 92 92 91 90 90 90 88 89 89 87 90 92
215 128 97 74 77 79 78 107 120 43 327 240 238 178 241 268 229 99 64 203 234 244 248 250 231 214 211 199 188 180 178 183 183 181 179 180 180 180 177 174 176 177 177 179 178 176 176 173 171 169 167 165 164 165 165 162 161 159 155 150 143 139 137 136 135 135 135 135 132 130 128 126 123 120 117 115 112 110 107 104 103 100 99 98 97 97 98 98 97 96 96 94 92 92 92 92 93
136 100 67 48 35 40 45 55 83 34 266 226 209 189 205 273 253 157 192 203 218 230 250 263 235 206 203 191 184 182 180 181 181 177 174 175 177 177 175 174 175 175 175 177 176 175 175 172 170 167 165 166 167 167 167 163 161 160 157 153 148 144 142 141 140 138 138 137 134 132 131 129 126 123 120 118 114 111 109 107 105 103 104 104 103 104 103 102 102 100 98 95 93 92 91 90 91
116 90 84 74 352 11 20 358 49 233 256 224 208 192 192 242 255 213 240 259 236 218 235 256 242 208 199 191 187 185 181 178 172 170 169 168 170 174 174 173 173 173 173 174 172 172 171 169 168 164 163 166 169 170 169 165 162 159 157 154 151 148 147 146 144 143 142 140 138 136 135 132 129 127 124 120 117 115 114 112 111 110 110 109 108 107 106 104 103 101 98 96 93 92 92 92 93
112 100 111 120 317 359 342 309 3 229 263 268 215 181 204 244 245 236 258 268 250 222 227 248 244 215 201 192 188 184 178 175 171 170 170 169 170 173 174 173 173 172 172 172 170 169 169 168 167 165 165 168 170 172 170 166 162 159 157 155 153 150 150 149 147 146 145 144 141 139 137 135 132 130 127 124 122 122 120 118 117 116 114 113 111 108 106 105 103 100 96 95 95 95 96 93 93
170 146 144 159 167 183 247 262 274 255 271 299 215 165 247 277 259 227 236 249 249 234 234 242 239 223 209 196 184 176 174 176 176 173 172 174 174 173 174 174 174 174 173 172 172 172 171 170 171 169 168 170 172 173 172 167 162 160 158 157 155 153 152 152 150 149 148 146 143 141 139 137 134 132 131 129 129 129 126 125 123 120 117 115 112 109 107 105 102 99 96 95 94 94 94 89 87
190 165 151 172 169 172 210 215 230 252 281 299 260 183 202 220 259 239 240 264 276 261 255 249 245 231 198 178 169 168 177 179 178 176 175 177 175 174 176 176 176 175 175 174 174 175 174 174 175 173 170 171 173 174 173 168 164 161 160 159 157 157 156 155 153 152 149 147 145 142 140 139 137 136 135 134 135 135 131 129 126 121 118 116 113 110 107 105 101 98 96 95 93 93 91 87 88
221 140 131 197 187 172 207 203 183 181 290 281 219 224 221 207 256 260 256 280 277 278 292 281 252 213 149 162 173 175 181 180 178 179 178 178 176 176 177 178 179 176 175 176 177 178 178 176 177 176 173 173 175 174 174 170 166 164 163 162 161 160 160 158 156 154 151 149 147 144 142 142 141 140 139 139 140 139 135 131 127 123 120 118 115 112 108 105 102 99 96 94 93 95 94 91 90
178 144 183 212 169 153 203 265 82 96 256 260 197 243 281 311 275 252 217 247 265 287 290 269 250 194 163 185 186 183 185 182 182 181 177 176 175 179 181 180 179 177 176 178 179 181 181 179 178 176 174 174 175 175 175 172 169 166 166 165 165 165 163 161 158 155 153 151 149 147 146 146 145 144 143 143 143 141 138 134 129 126 124 122 119 118 114 110 108 102 97 96 95 97 98 98 94
131 181 202 177 69 97 137 247 346 43 254 266 214 240 271 272 271 308 116 232 257 267 260 256 259 214 197 202 191 188 188 180 180 176 173 176 177 181 183 182 182 179 178 179 181 182 183 182 181 179 176 175 176 177 175 174 172 170 169 169 169 168 167 164 160 157 155 153 152 152 151 150 149 148 147 146 146 144 142 138 134 130 130 129 126 124 119 114 113 107 102 104 107 107 112 112 106
130 181 182 134 136 223 122 172 232 194 248 279 257 250 257 216 225 309 158 215 234 242 241 244 244 221 208 204 189 187 183 175 178 178 176 180 181 183 183 183 183 180 179 180 181 182 183 184 184 182 180 177 177 177 176 175 175 173 173 173 172 171 169 166 162 159 158 157 156 156 155 154 153 152 151 150 150 148 145 143 140 137 137 136 132 129 126 120 118 116 115 121 129 135 144 136 125
66 118 155 124 143 182 168 170 180 164 224 278 298 288 257 216 190 184 204 212 215 224 226 231 237 224 207 197 187 186 185 183 185 183 183 182 182 184 183 182 182 179 179 180 181 183 184 184 184 181 180 177 176 177 176 175 176 176 175 175 175 174 172 169 165 162 162 161 160 159 159 157 156 155 155 154 153 151 150 148 145 143 142 142 140 134 131 127 128 133 140 150 158 164 176 169 148
160 156 169 189 136 119 169 199 144 137 175 229 264 280 268 232 168 187 206 210 207 211 212 224 236 223 199 195 190 189 188 187 189 183 182 181 180 183 182 181 181 179 180 182 182 183 184 184 184 181 178 177 176 177 176 176 178 178 177 177 178 177 174 171 168 166 165 164 163 162 161 160 159 158 158 157 157 155 153 152 150 148 147 147 145 140 135 137 144 152 163 174 182 187 201 215 213
181 187 189 187 169 145 177 234 196 149 193 189 191 271 270 236 164 194 205 205 209 212 211 227 239 212 199 203 192 189 189 187 189 183 179 180 178 178 178 178 180 179 181 183 182 183 184 185 184 181 179 178 177 177 178 178 179 180 180 180 180 179 176 173 170 169 168 167 166 165 164 163 162 161 162 162 160 158 157 156 154 153 153 151 148 145 143 147 156 163 171 181 196 213 227 236 238